Time,TemperatureF,DewpointF,PressureIn,WindDirection,WindDirectionDegrees,WindSpeedMPH,WindSpeedGustMPH,Humidity,HourlyPrecipIn,Conditions,Clouds,dailyrainin,SolarRadiationWatts/m^2,SoftwareType,DateUTC
2013-04-20 00:02:00,31.0,29.0,-100.00,NE,56,2.0,5.0,91,0.00,,,0.00,0.000000,,2013-04-20 06:02:00,
2013-04-20 00:12:00,31.0,29.0,-100.00,NE,56,2.0,5.0,91,0.00,,,0.00,0.000000,,2013-04-20 06:12:00,
2013-04-20 00:42:00,31.0,28.0,-100.00,East,79,1.0,4.0,90,0.00,,,0.00,0.000000,,2013-04-20 06:42:00,
2013-04-20 00:52:00,31.0,28.0,-100.00,East,79,1.0,4.0,90,0.00,,,0.00,0.000000,,2013-04-20 06:52:00,
2013-04-20 01:01:00,31.0,28.0,-100.00,East,79,1.0,4.0,90,0.00,,,0.00,0.000000,,2013-04-20 07:01:00,
2013-04-20 01:11:00,31.0,28.0,-100.00,East,79,1.0,4.0,90,0.00,,,0.00,0.000000,,2013-04-20 07:11:00,
2013-04-20 01:42:00,31.0,28.0,-100.00,NNW,348,3.0,5.0,90,0.00,,,-99.99,0.000000,,2013-04-20 07:42:00,
2013-04-20 01:52:00,31.0,28.0,-100.00,NNW,348,3.0,5.0,90,0.00,,,-99.99,0.000000,,2013-04-20 07:52:00,
2013-04-20 02:02:00,31.0,28.0,-100.00,NNW,348,3.0,5.0,90,0.00,,,-99.99,0.000000,,2013-04-20 08:02:00,
2013-04-20 02:11:00,31.0,28.0,-100.00,NNW,348,3.0,5.0,90,0.00,,,-99.99,0.000000,,2013-04-20 08:11:00,
2013-04-20 02:42:00,31.0,28.0,-100.00,NNW,343,3.0,5.0,88,0.00,,,0.00,0.000000,,2013-04-20 08:42:00,
2013-04-20 02:52:00,31.0,28.0,-100.00,NNW,343,3.0,5.0,88,0.00,,,0.00,0.000000,,2013-04-20 08:52:00,
2013-04-20 03:01:00,31.0,28.0,-100.00,NNW,343,3.0,5.0,88,0.00,,,0.00,0.000000,,2013-04-20 09:01:00,
2013-04-20 03:12:00,31.0,28.0,-100.00,NNW,343,3.0,5.0,88,0.00,,,0.00,0.000000,,2013-04-20 09:12:00,
2013-04-20 03:13:00,31.0,28.0,-100.00,NW,313,1.0,6.0,87,0.00,,,0.00,0.000000,,2013-04-20 09:13:00,
2013-04-20 03:33:00,31.0,28.0,-100.00,NW,313,1.0,6.0,87,0.00,,,0.00,0.000000,,2013-04-20 09:33:00,
2013-04-20 03:43:00,31.0,28.0,-100.00,NW,313,1.0,6.0,87,0.00,,,0.00,0.000000,,2013-04-20 09:43:00,
2013-04-20 03:53:00,31.0,28.0,-100.00,NW,313,1.0,6.0,87,0.00,,,0.00,0.000000,,2013-04-20 09:53:00,
2013-04-20 04:03:00,31.0,28.0,-100.00,NW,313,1.0,6.0,87,0.00,,,0.00,0.000000,,2013-04-20 10:03:00,
2013-04-20 04:42:00,31.0,28.0,-100.00,North,349,3.0,5.0,88,0.00,,,0.00,0.000000,,2013-04-20 10:42:00,
2013-04-20 04:53:00,31.0,28.0,-100.00,North,349,3.0,5.0,88,0.00,,,0.00,0.000000,,2013-04-20 10:53:00,
2013-04-20 05:02:00,31.0,28.0,-100.00,North,349,3.0,5.0,88,0.00,,,0.00,0.000000,,2013-04-20 11:02:00,
2013-04-20 05:12:00,31.0,28.0,-100.00,North,349,3.0,5.0,88,0.00,,,0.00,0.000000,,2013-04-20 11:12:00,
2013-04-20 05:42:00,30.0,27.0,-100.00,NNE,23,2.0,5.0,90,0.00,,,0.00,0.000000,,2013-04-20 11:42:00,
2013-04-20 05:53:00,30.0,27.0,-100.00,NNE,23,2.0,5.0,90,0.00,,,0.00,0.000000,,2013-04-20 11:53:00,
2013-04-20 06:02:00,30.0,27.0,-100.00,NNE,23,2.0,5.0,90,0.00,,,0.00,0.000000,,2013-04-20 12:02:00,
2013-04-20 06:11:00,30.0,27.0,-100.00,NNE,23,2.0,5.0,90,0.00,,,0.00,0.000000,,2013-04-20 12:11:00,
2013-04-20 06:32:00,30.0,28.0,-100.00,West,273,0.0,3.0,91,0.00,,,0.00,1.000000,,2013-04-20 12:32:00,
2013-04-20 06:42:00,30.0,28.0,-100.00,West,273,0.0,3.0,91,0.00,,,0.00,1.000000,,2013-04-20 12:42:00,
2013-04-20 06:52:00,30.0,28.0,-100.00,West,273,0.0,3.0,91,0.00,,,0.00,1.000000,,2013-04-20 12:52:00,
2013-04-20 07:02:00,30.0,28.0,-100.00,West,273,0.0,3.0,91,0.00,,,0.00,1.000000,,2013-04-20 13:02:00,
2013-04-20 07:11:00,30.0,28.0,-100.00,West,273,0.0,3.0,91,0.00,,,0.00,1.000000,,2013-04-20 13:11:00,
2013-04-20 07:32:00,31.0,28.0,-100.00,NNW,342,1.0,3.0,90,0.00,,,0.00,45.000000,,2013-04-20 13:32:00,
2013-04-20 07:42:00,31.0,28.0,-100.00,NNW,342,1.0,3.0,90,0.00,,,0.00,45.000000,,2013-04-20 13:42:00,
2013-04-20 07:52:00,31.0,28.0,-100.00,NNW,342,1.0,3.0,90,0.00,,,0.00,45.000000,,2013-04-20 13:52:00,
2013-04-20 08:02:00,31.0,28.0,-100.00,NNW,342,1.0,3.0,90,0.00,,,0.00,45.000000,,2013-04-20 14:02:00,
2013-04-20 08:11:00,31.0,28.0,-100.00,NNW,342,1.0,3.0,90,0.00,,,0.00,45.000000,,2013-04-20 14:11:00,
2013-04-20 08:32:00,33.0,29.0,-100.00,SSE,154,4.0,6.0,85,0.00,,,0.00,151.000000,,2013-04-20 14:32:00,
2013-04-20 08:42:00,33.0,29.0,-100.00,SSE,154,4.0,6.0,85,0.00,,,0.00,151.000000,,2013-04-20 14:42:00,
2013-04-20 08:52:00,33.0,29.0,-100.00,SSE,154,4.0,6.0,85,0.00,,,0.00,151.000000,,2013-04-20 14:52:00,
2013-04-20 09:01:00,33.0,29.0,-100.00,SSE,154,4.0,6.0,85,0.00,,,0.00,151.000000,,2013-04-20 15:01:00,
2013-04-20 09:11:00,33.0,29.0,-100.00,SSE,154,4.0,6.0,85,0.00,,,0.00,151.000000,,2013-04-20 15:11:00,
2013-04-20 09:34:00,37.0,31.0,-100.00,East,82,4.0,5.0,80,0.00,,,0.00,240.000000,,2013-04-20 15:34:00,
2013-04-20 09:43:00,37.0,31.0,-100.00,East,82,4.0,5.0,80,0.00,,,0.00,240.000000,,2013-04-20 15:43:00,
2013-04-20 09:53:00,37.0,31.0,-100.00,East,82,4.0,5.0,80,0.00,,,0.00,240.000000,,2013-04-20 15:53:00,
2013-04-20 10:03:00,37.0,31.0,-100.00,East,82,4.0,5.0,80,0.00,,,0.00,240.000000,,2013-04-20 16:03:00,
2013-04-20 10:12:00,37.0,31.0,-100.00,East,82,4.0,5.0,80,0.00,,,0.00,240.000000,,2013-04-20 16:12:00,
2013-04-20 10:42:00,46.0,34.0,-100.00,SSE,166,5.0,7.0,63,0.00,,,0.00,422.000000,,2013-04-20 16:42:00,
2013-04-20 10:53:00,46.0,34.0,-100.00,SSE,166,5.0,7.0,63,0.00,,,0.00,422.000000,,2013-04-20 16:53:00,
2013-04-20 11:02:00,46.0,34.0,-100.00,SSE,166,5.0,7.0,63,0.00,,,0.00,422.000000,,2013-04-20 17:02:00,
2013-04-20 11:12:00,46.0,34.0,-100.00,SSE,166,5.0,7.0,63,0.00,,,0.00,422.000000,,2013-04-20 17:12:00,
2013-04-20 11:33:00,46.0,37.0,-100.00,ENE,76,6.0,12.0,70,0.00,,,0.00,868.000000,,2013-04-20 17:33:00,
2013-04-20 11:42:00,46.0,37.0,-100.00,ENE,76,6.0,12.0,70,0.00,,,0.00,868.000000,,2013-04-20 17:42:00,
2013-04-20 11:52:00,46.0,37.0,-100.00,ENE,76,6.0,12.0,70,0.00,,,0.00,868.000000,,2013-04-20 17:52:00,
2013-04-20 12:02:00,46.0,37.0,-100.00,ENE,76,6.0,12.0,70,0.00,,,0.00,868.000000,,2013-04-20 18:02:00,
2013-04-20 12:12:00,46.0,37.0,-100.00,ENE,76,6.0,12.0,70,0.00,,,0.00,868.000000,,2013-04-20 18:12:00,
2013-04-20 12:32:00,48.0,38.0,-100.00,East,85,6.0,10.0,67,0.00,,,0.00,964.000000,,2013-04-20 18:32:00,
2013-04-20 12:42:00,48.0,38.0,-100.00,East,85,6.0,10.0,67,0.00,,,0.00,964.000000,,2013-04-20 18:42:00,
2013-04-20 12:52:00,48.0,38.0,-100.00,East,85,6.0,10.0,67,0.00,,,0.00,964.000000,,2013-04-20 18:52:00,
2013-04-20 13:02:00,48.0,38.0,-100.00,East,85,6.0,10.0,67,0.00,,,0.00,964.000000,,2013-04-20 19:02:00,
2013-04-20 13:11:00,48.0,38.0,-100.00,East,85,6.0,10.0,67,0.00,,,0.00,964.000000,,2013-04-20 19:11:00,
2013-04-20 13:32:00,51.0,38.0,-100.00,East,87,7.0,11.0,62,0.00,,,0.00,753.000000,,2013-04-20 19:32:00,
2013-04-20 13:42:00,51.0,38.0,-100.00,East,87,7.0,11.0,62,0.00,,,0.00,753.000000,,2013-04-20 19:42:00,
2013-04-20 13:52:00,51.0,38.0,-100.00,East,87,7.0,11.0,62,0.00,,,0.00,753.000000,,2013-04-20 19:52:00,
2013-04-20 14:02:00,51.0,38.0,-100.00,East,87,7.0,11.0,62,0.00,,,0.00,753.000000,,2013-04-20 20:02:00,
2013-04-20 14:12:00,51.0,38.0,-100.00,East,87,7.0,11.0,62,0.00,,,0.00,753.000000,,2013-04-20 20:12:00,
2013-04-20 14:32:00,47.0,39.0,-100.00,NE,40,7.0,13.0,75,0.00,,,0.00,298.000000,,2013-04-20 20:32:00,
2013-04-20 14:42:00,47.0,39.0,-100.00,NE,40,7.0,13.0,75,0.00,,,0.00,298.000000,,2013-04-20 20:42:00,
2013-04-20 14:52:00,47.0,39.0,-100.00,NE,40,7.0,13.0,75,0.00,,,0.00,298.000000,,2013-04-20 20:52:00,
2013-04-20 15:01:00,47.0,39.0,-100.00,NE,40,7.0,13.0,75,0.00,,,0.00,298.000000,,2013-04-20 21:01:00,
2013-04-20 15:12:00,47.0,39.0,-100.00,NE,40,7.0,13.0,75,0.00,,,0.00,298.000000,,2013-04-20 21:12:00,
2013-04-20 15:43:00,50.0,37.0,-100.00,ENE,73,5.0,11.0,61,0.00,,,-99.99,503.000000,,2013-04-20 21:43:00,
2013-04-20 15:53:00,50.0,37.0,-100.00,ENE,73,5.0,11.0,61,0.00,,,-99.99,503.000000,,2013-04-20 21:53:00,
2013-04-20 16:02:00,50.0,37.0,-100.00,ENE,73,5.0,11.0,61,0.00,,,-99.99,503.000000,,2013-04-20 22:02:00,
2013-04-20 16:12:00,50.0,37.0,-100.00,ENE,73,5.0,11.0,61,0.00,,,-99.99,503.000000,,2013-04-20 22:12:00,
2013-04-20 16:33:00,53.0,37.0,-100.00,ENE,57,4.0,9.0,54,0.00,,,0.00,426.000000,,2013-04-20 22:33:00,
2013-04-20 16:42:00,53.0,37.0,-100.00,ENE,57,4.0,9.0,54,0.00,,,0.00,426.000000,,2013-04-20 22:42:00,
2013-04-20 16:53:00,53.0,37.0,-100.00,ENE,57,4.0,9.0,54,0.00,,,0.00,426.000000,,2013-04-20 22:53:00,
2013-04-20 17:02:00,53.0,37.0,-100.00,ENE,57,4.0,9.0,54,0.00,,,0.00,426.000000,,2013-04-20 23:02:00,
2013-04-20 17:11:00,53.0,37.0,-100.00,ENE,57,4.0,9.0,54,0.00,,,0.00,426.000000,,2013-04-20 23:11:00,
2013-04-20 17:32:00,49.0,37.0,-100.00,ENE,71,5.0,11.0,63,0.00,,,0.00,176.000000,,2013-04-20 23:32:00,
2013-04-20 17:42:00,49.0,37.0,-100.00,ENE,71,5.0,11.0,63,0.00,,,0.00,176.000000,,2013-04-20 23:42:00,
2013-04-20 17:53:00,49.0,37.0,-100.00,ENE,71,5.0,11.0,63,0.00,,,0.00,176.000000,,2013-04-20 23:53:00,
2013-04-20 18:01:00,49.0,37.0,-100.00,ENE,71,5.0,11.0,63,0.00,,,0.00,176.000000,,2013-04-21 00:01:00,
2013-04-20 18:11:00,49.0,37.0,-100.00,ENE,71,5.0,11.0,63,0.00,,,0.00,176.000000,,2013-04-21 00:11:00,
2013-04-20 19:32:00,45.0,37.0,-100.00,NW,308,3.0,7.0,74,-99.99,,,0.00,83.000000,,2013-04-21 01:32:00,
2013-04-20 19:42:00,45.0,37.0,-100.00,NW,308,3.0,7.0,74,-99.99,,,0.00,83.000000,,2013-04-21 01:42:00,
2013-04-20 19:52:00,45.0,37.0,-100.00,NW,308,3.0,7.0,74,-99.99,,,0.00,83.000000,,2013-04-21 01:52:00,
2013-04-20 20:02:00,45.0,37.0,-100.00,NW,308,3.0,7.0,74,-99.99,,,0.00,83.000000,,2013-04-21 02:02:00,
2013-04-20 20:11:00,45.0,37.0,-100.00,NW,308,3.0,7.0,74,-99.99,,,0.00,83.000000,,2013-04-21 02:11:00,
2013-04-20 20:32:00,44.0,37.0,-100.00,NW,313,5.0,7.0,75,0.00,,,0.00,8.000000,,2013-04-21 02:32:00,
2013-04-20 20:42:00,44.0,37.0,-100.00,NW,313,5.0,7.0,75,0.00,,,0.00,8.000000,,2013-04-21 02:42:00,
2013-04-20 20:52:00,44.0,37.0,-100.00,NW,313,5.0,7.0,75,0.00,,,0.00,8.000000,,2013-04-21 02:52:00,
2013-04-20 21:01:00,44.0,37.0,-100.00,NW,313,5.0,7.0,75,0.00,,,0.00,8.000000,,2013-04-21 03:01:00,
2013-04-20 21:11:00,44.0,37.0,-100.00,NW,313,5.0,7.0,75,0.00,,,0.00,8.000000,,2013-04-21 03:11:00,
2013-04-20 21:33:00,43.0,36.0,-100.00,NW,312,4.0,7.0,76,0.00,,,0.00,0.000000,,2013-04-21 03:33:00,
2013-04-20 21:42:00,43.0,36.0,-100.00,NW,312,4.0,7.0,76,0.00,,,0.00,0.000000,,2013-04-21 03:42:00,
2013-04-20 21:52:00,43.0,36.0,-100.00,NW,312,4.0,7.0,76,0.00,,,0.00,0.000000,,2013-04-21 03:52:00,
2013-04-20 22:02:00,43.0,36.0,-100.00,NW,312,4.0,7.0,76,0.00,,,0.00,0.000000,,2013-04-21 04:02:00,
2013-04-20 22:12:00,43.0,36.0,-100.00,NW,312,4.0,7.0,76,0.00,,,0.00,0.000000,,2013-04-21 04:12:00,
2013-04-20 22:43:00,43.0,35.0,-100.00,WNW,303,4.0,6.0,74,0.00,,,0.00,0.000000,,2013-04-21 04:43:00,
2013-04-20 22:53:00,43.0,35.0,-100.00,WNW,303,4.0,6.0,74,0.00,,,0.00,0.000000,,2013-04-21 04:53:00,
2013-04-20 23:02:00,43.0,35.0,-100.00,WNW,303,4.0,6.0,74,0.00,,,0.00,0.000000,,2013-04-21 05:02:00,
2013-04-20 23:12:00,43.0,35.0,-100.00,WNW,303,4.0,6.0,74,0.00,,,0.00,0.000000,,2013-04-21 05:12:00,
2013-04-20 23:32:00,43.0,36.0,-100.00,WNW,286,10.0,18.0,75,0.00,,,0.00,0.000000,,2013-04-21 05:32:00,
2013-04-20 23:43:00,43.0,36.0,-100.00,WNW,286,10.0,18.0,75,0.00,,,0.00,0.000000,,2013-04-21 05:43:00,
2013-04-20 23:52:00,43.0,36.0,-100.00,WNW,286,10.0,18.0,75,0.00,,,0.00,0.000000,,2013-04-21 05:52:00,